Погода в Боне

Франция     47°01′40″N   4°50′23″E
темп.,
°C
ветер,
м/с
пор.,
м/с
влажн.,
%
обл.,
%
осадки,
мм/ч
давл.,
гПа
погр.,
м
5 декабря, вс
вс501:00+3зюз4885100 0.0 1009762
04:00+3ююз4891100 0.0 1007596
07:00+2ююз3894100 0.0 1006568
10:00+2зюз3797100 0.2 1006650
13:00+4з4782100 0.3 1006938
16:00+2зюз3998100 1.3 1006547
19:00+2юз2596100 1.5 1007396
22:00+2сз1399100 3.2 1010159
6 декабря, пн
пн601:00+2зюз1398100 3.3 1011183
04:00+2сз139389 0.1 1013163
07:00+1зсз139689 0.1 1016233
10:00+2сз019077 0.1 1018191
13:00+4ю227943 0.1 1018666
16:00+4ююв2484100 0.1 1017187
19:00+1ю3698100 0.1 1017153
22:00+2ююз41198100 1.2 1015617
7 декабря, вт
вт701:00+2зюз2899100 3.3 1017454
04:00+1з239534 0.1 101861
07:00+2зюз2495100 0.2 1019141
10:00+3ююз2485100 0.0 1018216
13:00+3ю2688100 0.0 1015637
16:00+3юв4789100 0.0 1010374
19:00+2ююв41294100 0.0 1006445
22:00+3ю51596100 3.4 1004615
8 декабря, ср
ср801:00+4ю2497100 5.3 1004145
04:00+2ююз2498100 0.1 1003106
07:00+2ю2498100 0.1 1002100
10:00+2ююз3799100 1.8 1002343
13:00+4юз378364 1.9 1001773
16:00+3юз478936 0.6 1001527
19:000ююз2494100 0.6 100386
22:000ююв2795100 0.0 1002206
9 декабря, чт
чт901:00+1ююв41298100 2.5 1001519
04:00+1ю51399100 0.8 999663
07:00+1ю51299100 3.4 999571
10:00+1ю3999100 1.4 1000538
13:00+2ю26100100 1.9 1001420
16:00+2з14100100 0.1 1002366
19:00+2сз3898100 0.3 1005485
22:00+1сз3797100 0.0 1007438